Hourly Data

Hourly Data Report for April 01, 2009

All times are specified in Local Standard Time (LST). Add 1 hour to adjust for Daylight Saving Time where and when it is observed.

Metadata including Station Name, Province, Latitude, Longitude, Elevation, Climate ID, WMO ID, TC ID
HALIFAX STANFIELD INT'L A
NOVA SCOTIA
Latitude: 44°52'48.060" N Longitude: 63°30'00.050" W Elevation: 145.40 m
Climate ID: 8202250 WMO ID: 71395 TC ID: YHZ
Hourly Data Report for April 1, 2009
Temp Definition
°C

Dew Point Temp Definition
°C

Rel Hum Definition
%

Wind Dir Definition
10's deg
Wind Spd Definition
km/h

Visibility Definition
km

Stn Press Definition
kPa

Hmdx Definition

Wind Chill Definition

Weather Definition

TIME
00:00 -1.7 -5.3 76 1 13 24.1 100.59 -6 Cloudy
01:00 -3.1 -4.6 89 35 9 24.1 100.58 -7 Mostly Cloudy
02:00 -3.9 -5.0 92 36 9 24.1 100.60 -8 Mostly Cloudy
03:00 -4.4 -5.1 95 36 4 24.1 100.56 -6 Mainly Clear
04:00 -4.8 -5.8 93 2 6 24.1 100.60 -8 Mainly Clear
05:00 -4.4 -5.1 95 36 6 24.1 100.67 -7 Cloudy
06:00 -4.0 -4.7 95 32 7 19.3 100.76 -7 Cloudy
07:00 -3.9 -5.2 91 3 7 19.3 100.78 -7 Mostly Cloudy
08:00 -3.5 -4.8 91 36 9 19.3 100.85 -7 Cloudy
09:00 -2.2 -4.4 85 31 11 24.1 100.89 -6 Mostly Cloudy
10:00 -1.5 -4.7 79 32 6 24.1 100.87 -4 Mostly Cloudy
11:00 -0.1 -4.6 72   0 24.1 100.84 Mainly Clear
12:00 0.7 -4.8 67   0 24.1 100.80 Mainly Clear
13:00 2.5 -2.7 69 2 6 24.1 100.76 Mainly Clear
14:00 4.8 -3.3 56 22 4 24.1 100.69 Mostly Cloudy
15:00 4.4 -3.1 58 13 4 24.1 100.61 Mostly Cloudy
16:00 5.3 -1.2 63 21 15 24.1 100.62 Mostly Cloudy
17:00 3.6 -2.1 66 21 26 24.1 100.58 Mostly Cloudy
18:00 1.3 -2.7 75 20 17 24.1 100.58 Mostly Cloudy
19:00 -0.7 -3.3 83 20 19 24.1 100.59 -6 Mostly Cloudy
20:00 -1.2 -3.2 86 21 20 24.1 100.61 -7 Mainly Clear
21:00 -1.2 -2.6 90 22 22 24.1 100.61 -7 Mostly Cloudy
22:00 -1.2 -2.2 93 20 22 24.1 100.55 -7 Cloudy
23:00 -1.0 -1.9 94 19 19 24.1 100.51 -6 Cloudy

Notes on Data Quality.

Legend
  • M = Missing
  • E = Estimated
  • NA = Not Available
  • ‡ = Partner data that is not subject to review by the National Climate Archives